[[{"header":{"parameterUnit":"m.s-1","parameterCategory":1,"la1":30.2991,"la2":30.254,"lo1":-89.0895,"lo2":-89.0444,"dy":0.0017,"dx":0.0017,"nx":28,"ny":28,"refTime":"2024-08-22T09:00:00:Z","depth":0,"parameterNumber":2,"parameterNumberName":"U-component_of_WINDS"},"data":[0,0,0,0,0,0,0,0,0,0,0,0,0,0,0,0,0,0,0,0,0,0,0,0,0,0,0,0,0,0,0,0,0,0,0,0,0,0,0,0,0,0,0,0,0,0,0,0,0,0,0,0,0,0,0,0,0,0,-0.6486,-0.6485,0,-0.64,-0.6399,-0.6399,-0.6297,-0.6295,-0.6294,-0.6292,-0.6205,-0.6205,-0.6204,0,0,0,0,0,0,0,0,0,0,0,0,0,-0.6561,-0.656,-0.6486,-0.6485,-0.6484,-0.6401,-0.6399,-0.6398,-0.6297,-0.6295,-0.6293,-0.6291,-0.6206,-0.6205,-0.6204,0,0,0,0,0,0,0,0,0,0,0,0,0,-0.6507,-0.656,-0.6486,-0.6423,-0.6417,-0.6401,-0.6399,-0.6398,-0.6297,-0.6295,-0.6293,-0.629,-0.6206,-0.6205,-0.6204,-0.6243,0,0,-0.62,-0.6199,0,0,0,0,0,0,0,0,-0.6511,-0.6505,-0.6433,-0.6427,-0.642,-0.6357,-0.6394,-0.6346,-0.6298,-0.6343,-0.6292,-0.6289,-0.6258,-0.6252,-0.6241,-0.6239,-0.6235,-0.62,-0.6199,-0.6198,-0.6198,0,0,0,0,0,0,0,-0.6514,-0.6508,-0.6452,-0.6432,-0.6424,-0.6399,-0.6389,-0.6385,-0.6314,-0.6339,-0.6331,-0.6322,-0.6254,-0.6243,-0.6238,-0.6234,-0.62,-0.6198,-0.6198,-0.6197,-0.626,-0.6263,0,0,0,0,0,0,-0.6528,-0.6512,-0.6455,-0.6449,-0.646,-0.64,-0.6388,-0.6379,-0.6314,-0.6302,-0.6324,-0.6318,-0.6246,-0.624,-0.6235,-0.6278,-0.6198,-0.6197,-0.6196,-0.6258,-0.6261,-0.6264,0,0,0,0,0,0,-0.653,-0.6523,-0.6458,-0.6478,-0.6468,-0.6401,-0.6392,-0.6379,-0.6368,-0.6303,-0.6291,-0.6326,-0.6244,-0.6237,-0.6242,-0.6273,-0.6197,-0.6195,-0.6255,-0.6259,-0.6262,-0.6364,0,0,0,0,0,0,-0.6532,-0.6525,-0.6539,-0.648,-0.6468,-0.6467,-0.6394,-0.6379,-0.6366,-0.6357,-0.6302,-0.629,-0.6242,-0.6244,-0.6241,-0.627,-0.6194,-0.6252,-0.6257,-0.6261,-0.6357,-0.6371,-0.6382,0,0,0,0,0,-0.6535,-0.6571,-0.654,-0.6534,-0.6484,-0.6469,-0.6462,-0.6405,-0.6369,-0.6383,-0.6341,-0.6292,-0.627,-0.6246,-0.6241,-0.6271,-0.625,-0.6256,-0.6261,-0.6352,-0.6368,-0.6381,0,0,0,0,0,0,-0.6636,-0.6562,-0.6527,-0.6545,-0.6514,-0.6452,-0.6467,-0.6423,-0.6402,-0.6394,-0.6324,-0.6313,-0.6327,-0.6298,-0.6273,-0.6306,-0.6253,-0.6258,-0.6324,-0.6339,-0.635,-0.6358,-0.6193,0,0,0,0,0,-0.666,-0.6654,-0.6589,-0.6611,-0.6597,-0.6536,-0.6527,-0.6485,-0.6451,-0.6437,-0.6396,-0.6364,-0.635,-0.6342,-0.6326,-0.6352,-0.6339,-0.637,-0.6382,-0.6393,-0.6398,-0.6411,-0.6425,-0.6282,-0.6282,-0.6282,0,0,-0.6711,-0.6669,-0.667,-0.6631,-0.6602,-0.6597,-0.6525,-0.6523,-0.6519,-0.6437,-0.6439,-0.6408,-0.6368,-0.6385,-0.639,-0.6361,-0.6435,-0.64,-0.6408,-0.6408,-0.6418,-0.6432,-0.6444,-0.6285,-0.6285,-0.6284,0,0,-0.68,-0.6768,-0.6783,-0.6755,-0.6713,-0.6671,-0.6675,-0.6619,-0.6595,-0.6597,-0.6535,-0.6529,-0.6506,-0.648,-0.6464,-0.6544,-0.6499,-0.6541,-0.6605,-0.6618,-0.663,-0.6639,-0.667,-0.6681,-0.6546,-0.6546,-0.6546,0,-0.6868,-0.6859,-0.6796,-0.6798,-0.6783,-0.6708,-0.6723,-0.6699,-0.6654,-0.6645,-0.6614,-0.6584,-0.6552,-0.6562,-0.6581,-0.657,-0.6573,-0.6547,-0.6633,-0.6642,-0.665,-0.6678,-0.669,-0.6552,-0.6551,-0.655,-0.655,0,-0.6945,-0.694,-0.6957,-0.6915,-0.6901,-0.691,-0.6849,-0.6843,-0.6803,-0.6765,-0.6768,-0.6726,-0.67,-0.6699,-0.6659,-0.6704,-0.6688,-0.6646,-0.6592,-0.6671,-0.6696,-0.6706,-0.656,-0.6558,-0.6556,-0.6555,0,0,-0.7097,-0.702,-0.7028,-0.7008,-0.6955,-0.695,-0.6955,-0.693,-0.6927,-0.6897,-0.6901,-0.6883,-0.6844,-0.6826,-0.6783,-0.6794,-0.6862,-0.6751,-0.6749,-0.6775,-0.691,-0.6943,-0.6957,-0.6831,-0.6832,-0.6834,-0.6914,0,-0.7179,-0.7184,-0.7127,-0.7148,-0.7142,-0.707,-0.7075,-0.7043,-0.7008,-0.6998,-0.6958,-0.6948,-0.6896,-0.6885,-0.6893,-0.6852,-0.6889,-0.6845,-0.6834,-0.6835,-0.6849,-0.6969,-0.7004,-0.7082,-0.6923,-0.6925,-0.6926,0,-0.7274,-0.7251,-0.7271,-0.7218,-0.7213,-0.7219,-0.7191,-0.7182,-0.7145,-0.7118,-0.7099,-0.7049,-0.7051,-0.6998,-0.7,-0.6972,-0.6964,-0.6943,-0.6945,-0.6943,-0.6887,-0.6973,-0.7105,-0.7118,-0.694,-0.6939,-0.6938,0,-0.7386,-0.7359,-0.7367,-0.7353,-0.729,-0.7296,-0.727,-0.723,-0.7219,-0.7194,-0.7187,-0.7163,-0.7151,-0.7134,-0.7079,-0.7046,-0.7089,-0.7031,-0.7067,-0.7069,-0.7081,-0.7082,-0.7216,-0.7073,-0.7073,-0.7073,-0.7073,0,-0.7484,-0.7499,-0.7417,-0.7423,-0.7438,-0.7373,-0.739,-0.7357,-0.7322,-0.7321,-0.7256,-0.7256,-0.7183,-0.7175,-0.7133,-0.7142,-0.7136,-0.7115,-0.7104,-0.7122,-0.7125,-0.7118,-0.7112,-0.7076,-0.7075,-0.7075,-0.7074,0,-0.7611,-0.7556,-0.7562,-0.7502,-0.7487,-0.7502,-0.745,-0.7454,-0.7413,-0.7412,-0.7408,-0.7346,-0.7333,-0.7277,-0.725,-0.7221,-0.7246,-0.7222,-0.7259,-0.7252,-0.7292,-0.729,-0.7428,-0.7444,-0.7289,-0.7291,-0.7292,0,-0.7678,-0.7689,-0.763,-0.7625,-0.7602,-0.7593,-0.7581,-0.7517,-0.7507,-0.7466,-0.7474,-0.7456,-0.7438,-0.7421,-0.7374,-0.7353,-0.733,-0.738,-0.7327,-0.7345,-0.7333,-0.7334,-0.7336,-0.7392,-0.7394,-0.7396,-0.7397,0,-0.7804,-0.7776,-0.7761,-0.7738,-0.7725,-0.7703,-0.7677,-0.7676,-0.7605,-0.7597,-0.7583,-0.757,-0.7543,-0.7526,-0.7498,-0.7471,-0.7424,-0.7414,-0.7422,-0.7441,-0.7463,-0.7454,-0.7292,-0.7412,-0.741,-0.7409,-0.7408,-0.7408,-0.7904,-0.7911,-0.7871,-0.7857,-0.783,-0.7808,-0.7808,-0.7768,-0.7755,-0.7728,-0.7691,-0.7682,-0.7645,-0.7602,-0.7579,-0.7572,-0.7545,-0.7555,-0.7558,-0.7563,-0.7572,-0.7462,-0.7566,-0.7566,-0.7565,-0.7565,-0.7564,0,-0.8028,-0.7999,-0.7986,-0.7952,-0.7941,-0.7896,-0.7865,-0.7859,-0.7852,-0.7821,-0.7805,-0.7789,-0.7773,-0.7724,-0.7703,-0.7706,-0.7684,-0.7703,-0.7703,-0.7698,-0.7597,-0.7593,-0.7722,-0.7722,-0.7722,-0.7722,-0.7722,-0.7722,-0.8092,-0.81,-0.8068,-0.8063,-0.8033,-0.8024,-0.8011,-0.799,-0.7965,-0.795,-0.7936,-0.7904,-0.7866,-0.7842,-0.7825,-0.7811,-0.7807,-0.7834,-0.7813,-0.772,-0.7705,-0.7691,-0.7687,-0.7833,-0.7833,-0.7915,-0.7916,-0.7917]},{"header":{"parameterUnit":"m.s-1","parameterCategory":1,"la1":30.2991,"la2":30.254,"lo1":-89.0895,"lo2":-89.0444,"dy":0.0017,"dx":0.0017,"nx":28,"ny":28,"refTime":"2024-08-22T09:00:00:Z","depth":0,"parameterNumber":3,"parameterNumberName":"V-component_of_WINDS"},"data":[0,0,0,0,0,0,0,0,0,0,0,0,0,0,0,0,0,0,0,0,0,0,0,0,0,0,0,0,0,0,0,0,0,0,0,0,0,0,0,0,0,0,0,0,0,0,0,0,0,0,0,0,0,0,0,0,0,0,-0.401,-0.401,0,-0.4032,-0.4032,-0.4032,-0.4084,-0.4085,-0.4086,-0.4087,-0.4109,-0.4108,-0.4108,0,0,0,0,0,0,0,0,0,0,0,0,0,-0.4013,-0.4012,-0.401,-0.401,-0.401,-0.4032,-0.4032,-0.4032,-0.4084,-0.4085,-0.4087,-0.4088,-0.4109,-0.4108,-0.4108,0,0,0,0,0,0,0,0,0,0,0,0,0,-0.4021,-0.4012,-0.401,-0.4039,-0.4042,-0.4032,-0.4032,-0.4032,-0.4084,-0.4085,-0.4087,-0.4089,-0.4109,-0.4108,-0.4108,-0.4071,0,0,-0.4106,-0.4105,0,0,0,0,0,0,0,0,-0.402,-0.402,-0.4034,-0.4037,-0.404,-0.4057,-0.4041,-0.4045,-0.4083,-0.4068,-0.4087,-0.4089,-0.409,-0.4091,-0.4092,-0.4072,-0.4073,-0.4106,-0.4105,-0.4105,-0.4105,0,0,0,0,0,0,0,-0.4019,-0.402,-0.4019,-0.4034,-0.4038,-0.4051,-0.4054,-0.4042,-0.4069,-0.4069,-0.4073,-0.4075,-0.4092,-0.4092,-0.4092,-0.4073,-0.4106,-0.4105,-0.4105,-0.4104,-0.4027,-0.4026,0,0,0,0,0,0,-0.4015,-0.4019,-0.4018,-0.4019,-0.4034,-0.4049,-0.4053,-0.405,-0.407,-0.4074,-0.4074,-0.4077,-0.4092,-0.4093,-0.4093,-0.4054,-0.4105,-0.4104,-0.4104,-0.4029,-0.4027,-0.4025,0,0,0,0,0,0,-0.4015,-0.4014,-0.4017,-0.402,-0.4022,-0.4048,-0.4044,-0.4049,-0.405,-0.4073,-0.4078,-0.4069,-0.4094,-0.4094,-0.4077,-0.4056,-0.4104,-0.4103,-0.4031,-0.4028,-0.4026,-0.3974,0,0,0,0,0,0,-0.4015,-0.4014,-0.4,-0.4019,-0.4021,-0.4,-0.4043,-0.4049,-0.4049,-0.4054,-0.407,-0.4074,-0.4095,-0.4078,-0.4076,-0.4056,-0.4103,-0.4033,-0.403,-0.4027,-0.3978,-0.397,-0.3963,0,0,0,0,0,-0.4014,-0.3984,-0.3999,-0.3999,-0.4005,-0.3999,-0.4,-0.4025,-0.4047,-0.4034,-0.4049,-0.4074,-0.4057,-0.4075,-0.4074,-0.4053,-0.4034,-0.4031,-0.4027,-0.3981,-0.3972,-0.3964,0,0,0,0,0,0,-0.3961,-0.3987,-0.4004,-0.3979,-0.3986,-0.4007,-0.3992,-0.4013,-0.4014,-0.4019,-0.405,-0.4053,-0.4032,-0.404,-0.406,-0.402,-0.405,-0.4046,-0.4016,-0.4007,-0.4,-0.3999,-0.4102,0,0,0,0,0,-0.3946,-0.3939,-0.3962,-0.3938,-0.3941,-0.3965,-0.3963,-0.3982,-0.3991,-0.3994,-0.4008,-0.4015,-0.4012,-0.4009,-0.4008,-0.3978,-0.3984,-0.3963,-0.3956,-0.395,-0.3947,-0.3934,-0.3926,-0.4013,-0.4013,-0.4013,0,0,-0.3916,-0.3929,-0.3923,-0.3927,-0.3935,-0.3928,-0.3968,-0.3957,-0.3953,-0.3992,-0.3978,-0.3988,-0.3998,-0.3975,-0.3966,-0.3982,-0.3924,-0.3945,-0.394,-0.3941,-0.393,-0.3922,-0.3914,-0.401,-0.4011,-0.4011,0,0,-0.3857,-0.3865,-0.3848,-0.3855,-0.3867,-0.3883,-0.3879,-0.3897,-0.3906,-0.3891,-0.3921,-0.3916,-0.3909,-0.3916,-0.3918,-0.3863,-0.3887,-0.3861,-0.3825,-0.3812,-0.3805,-0.3799,-0.3782,-0.3775,-0.3857,-0.3857,-0.3857,0,-0.3818,-0.3809,-0.3835,-0.3824,-0.3826,-0.3862,-0.3845,-0.385,-0.386,-0.3861,-0.3878,-0.3872,-0.3881,-0.3861,-0.3848,-0.3848,-0.3845,-0.3861,-0.3804,-0.3798,-0.3793,-0.3777,-0.3771,-0.3854,-0.3854,-0.3855,-0.3855,0,-0.3761,-0.3754,-0.3738,-0.3748,-0.3748,-0.3733,-0.3758,-0.3755,-0.3773,-0.3788,-0.3774,-0.3786,-0.3788,-0.3784,-0.3801,-0.3767,-0.3777,-0.3798,-0.383,-0.3782,-0.3768,-0.3761,-0.385,-0.3851,-0.3852,-0.3853,0,0,-0.3671,-0.3697,-0.3691,-0.3697,-0.3712,-0.3708,-0.3695,-0.3698,-0.3695,-0.37,-0.3692,-0.3685,-0.3706,-0.3709,-0.3727,-0.3715,-0.3674,-0.3739,-0.374,-0.3729,-0.364,-0.3626,-0.3618,-0.3689,-0.3688,-0.3687,-0.364,0,-0.3619,-0.36,-0.3624,-0.36,-0.3595,-0.3628,-0.3618,-0.3626,-0.3639,-0.3637,-0.3651,-0.3648,-0.3674,-0.3676,-0.3666,-0.3681,-0.3657,-0.3684,-0.3683,-0.3682,-0.3682,-0.3611,-0.3595,-0.3551,-0.3635,-0.3634,-0.3633,0,-0.3555,-0.356,-0.3535,-0.3554,-0.3553,-0.3543,-0.3549,-0.3545,-0.3556,-0.3566,-0.357,-0.3592,-0.3581,-0.361,-0.3597,-0.3615,-0.3615,-0.3622,-0.3621,-0.3624,-0.3657,-0.3614,-0.3537,-0.3531,-0.3624,-0.3624,-0.3625,0,-0.3496,-0.3495,-0.3481,-0.3484,-0.3505,-0.3498,-0.3506,-0.3518,-0.3519,-0.3523,-0.3524,-0.3527,-0.3529,-0.353,-0.3553,-0.3571,-0.3537,-0.3567,-0.3547,-0.3547,-0.3541,-0.3541,-0.3465,-0.3536,-0.3536,-0.3536,-0.3536,0,-0.3437,-0.3421,-0.3455,-0.3447,-0.343,-0.3457,-0.3441,-0.3452,-0.3463,-0.3458,-0.3486,-0.348,-0.3509,-0.3507,-0.3524,-0.3512,-0.3511,-0.3521,-0.3526,-0.352,-0.3519,-0.3522,-0.3527,-0.3534,-0.3535,-0.3535,-0.3535,0,-0.3369,-0.339,-0.3378,-0.3399,-0.3404,-0.3391,-0.3409,-0.3403,-0.3417,-0.3411,-0.3411,-0.3434,-0.3433,-0.3455,-0.3457,-0.3469,-0.345,-0.3459,-0.3447,-0.3451,-0.3431,-0.3434,-0.3357,-0.3349,-0.3422,-0.3421,-0.342,0,-0.3331,-0.332,-0.334,-0.3339,-0.3347,-0.3344,-0.3345,-0.3371,-0.3371,-0.3383,-0.3375,-0.3376,-0.3379,-0.3376,-0.3393,-0.3396,-0.3407,-0.338,-0.3408,-0.3402,-0.341,-0.3412,-0.3412,-0.3375,-0.3374,-0.3373,-0.3372,0,-0.3263,-0.3274,-0.3275,-0.328,-0.3282,-0.3286,-0.3293,-0.329,-0.3319,-0.3318,-0.3317,-0.3319,-0.3323,-0.3324,-0.333,-0.3339,-0.3361,-0.3363,-0.3359,-0.3354,-0.3349,-0.3354,-0.3434,-0.3365,-0.3366,-0.3367,-0.3367,-0.3367,-0.3211,-0.3204,-0.3218,-0.3218,-0.3226,-0.3232,-0.3228,-0.3242,-0.3243,-0.3248,-0.3263,-0.326,-0.3272,-0.3282,-0.3289,-0.3288,-0.3301,-0.3295,-0.3294,-0.3292,-0.329,-0.3347,-0.3288,-0.3289,-0.3289,-0.3289,-0.3289,0,-0.3147,-0.3157,-0.3158,-0.3167,-0.3168,-0.3188,-0.3196,-0.3196,-0.3194,-0.3203,-0.3205,-0.3205,-0.3207,-0.3224,-0.3228,-0.3224,-0.3234,-0.3224,-0.3226,-0.3228,-0.3276,-0.3281,-0.3216,-0.3216,-0.3216,-0.3216,-0.3216,-0.3216,-0.3114,-0.3104,-0.3117,-0.3111,-0.3121,-0.312,-0.3124,-0.3129,-0.3137,-0.3136,-0.3138,-0.315,-0.3162,-0.3168,-0.317,-0.3175,-0.3177,-0.3164,-0.3172,-0.3217,-0.3225,-0.3231,-0.3236,-0.3163,-0.3163,-0.3125,-0.3125,-0.3125]}]]